星链-36072(STARLINK-36072)

导读 | 豆包AI

STARLINK-36072是美国太空探索技术公司Starlink星链互联网星座中的一颗卫星,于2025年12月2日发射。星链计划旨在通过近地轨道卫星群为全球提供高速互联网络服务,这颗卫星的入轨进一步扩充了星链星座的卫星规模,推进该星座全球网络覆盖的建设进程。

基本信息
目录编号:
66856
目录名称:
STARLINK-36072
国际标识:
2025-281J
轨道中心:
EARTH
卫星名称:
星链-36072
卫星全名:
星链-36072(STARLINK-36072)
卫星状态:
在轨 (已飞行102 天)
发射日期:
2025-12-02 UTC
国别 :
美国 (US)
星等 :
--
轨道信息
数据来源 国际轨道数据
星历时间: 2026-03-13T08:59:29+0800
1天前
查看轨道信息
半长轴: 6861.121km
偏心率: 0.000191
轨道倾角: 43.000°
近地点辐角 252.368°
升交点赤经 324.931°
平近点角 107.696°
近地点: 481.673km
远地点: 484.295km
周期: 94.265分钟
每日圈数: 15.276019
详细信息
固有亮度:
5
最大亮度:
2.5
卫星平台:
Starlink V1.0
覆盖范围:
全球
运营商:
太空探索技术公司
运营商所在国:
美国
制造商(研发单位):
太空探索技术公司
制造商所在国:
美国
使用方式:
暂无
卫星简介
Starlink 计划是 SpaceX 推出的全球卫星互联网项目,通过发射低轨道卫星,为全球尤其是偏远地区提供高速、低延迟的互联网服务。自 2019 年起,Starlink 已部署数千颗卫星,旨在缩小全球数字鸿沟,推动互联网普及。该项目还为军事、航空等行业提供通信支持,带来广泛经济效益。
2D轨道图
3D轨道图
轨道高度分析图
轨道倾角分析图
轨道综合分析图
查看轨道综合分析图